Location: Isle of Man Observatory
(54.1776°N, 4.6264°W)
Time: 14:51:55
(UTC+02:00)

ARIANE 6 FM1 Upper Stage - Pass Details

Date: 18 April 2026
Orbit: 526 x 601 km, 62.0° (Epoch: 19 May)

Event Time Altitude Azimuth Distance (km) Brightness Sun altitude
Rises 01:11:49 0° 302° (WNW) 2,691 6.9 -23.6°
Reaches altitude 10° 01:14:11 10° 312° (NW) 1,790 6.0 -23.7°
Maximum altitude 01:17:52 34° 19° (NNE) 886 4.1 -23.8°
Enters shadow 01:19:36 23° 65° (ENE) 1,145 4.3 -23.9°
